Weather History for Tekamah, NE

Change the Weather History Date:

Monday, December 15, 2014

  Actual Average Record
Temperature  
Mean Temperature 41 °F -  
Max Temperature 54 °F 34 °F 63 °F (2002)
Min Temperature 27 °F 15 °F -16 °F (1951)
Degree Days  
Heating Degree Days 24    
Moisture  
Dew Point 37 °F    
Average Humidity 90    
Maximum Humidity 97    
Minimum Humidity 78    
Precipitation  
Precipitation 0.70 in - - ()
Sea Level Pressure  
Sea Level Pressure 29.71 in    
Wind  
Wind Speed 14 mph (NNW)    
Max Wind Speed 31 mph    
Max Gust Speed 41 mph    
Visibility 8 miles    
Events Rain    
Averages and records for this station are not official NWS values.
T = Trace of Precipitation, MM = Missing Value Source: NWS Daily Summary

Daily Weather History Graph

Daily Weather History Graph

Search for Another Location

Airport:

Trip Planner

Search our weather history database for the weather conditions in past years. The results will help you decide how hot, cold, wet, or windy it might be!

Date:

Astronomy

Dec. 15, 2014 Rise Set
Actual Time 7:44 AM CST 4:54 PM CST
Civil Twilight 7:13 AM CST 5:26 PM CST
Nautical Twilight 6:38 AM CST 6:01 PM CST
Astronomical Twilight 6:04 AM CST 6:35 PM CST
Moon 12:59 AM CST (12/15) 12:59 PM CST (12/15)
Length of Visible Light 10h 13m
Length of Day
9h 09m
Last Quarter, 39% of the Moon is Illuminated
Dec 15
Last Quarter
Dec 21
New
Dec 28
First Quarter
Jan 4
Full
Jan 13
Last Quarter

Hourly Weather History & Observations

Time (CST) Temp. Windchill Dew Point Humidity Pressure Visibility Wind Dir Wind Speed Gust Speed Precip Events Conditions
12:12 AM 54.0 °F - 52.0 °F 93% 29.71 in 6.0 mi ESE 13.8 mph - 0.01 in Rain Light Rain
12:33 AM 54.0 °F - 52.0 °F 93% 29.70 in 5.0 mi ESE 11.5 mph - 0.02 in Rain Light Rain
12:43 AM 54.0 °F - 52.0 °F 93% 29.70 in 4.0 mi ESE 10.4 mph - 0.04 in Rain Rain
12:54 AM 54.0 °F - 52.0 °F 93% 29.68 in 4.0 mi ESE 10.4 mph - 0.05 in Rain Light Rain
1:03 AM 54.0 °F - 52.0 °F 93% 29.68 in 4.0 mi ESE 9.2 mph - 0.01 in Rain Light Rain
1:54 AM 54.0 °F - 52.0 °F 93% 29.67 in 5.0 mi ENE 4.6 mph - 0.07 in Rain Light Rain
2:06 AM 46.0 °F 39.9 °F 45.0 °F 96% 29.68 in 3.0 mi NNW 13.8 mph - 0.01 in Rain Light Rain
2:54 AM 42.1 °F 34.5 °F 41.0 °F 96% 29.66 in 4.0 mi North 15.0 mph - 0.08 in Rain Rain
3:54 AM 41.0 °F 33.5 °F 39.9 °F 96% 29.64 in 4.0 mi North 13.8 mph - 0.13 in Rain Rain
4:20 AM 39.9 °F 34.5 °F 39.0 °F 97% 29.65 in 2.5 mi NW 8.1 mph - 0.06 in Rain Heavy Rain
4:34 AM 41.0 °F 35.8 °F 39.0 °F 93% 29.66 in 4.0 mi West 8.1 mph - 0.09 in Rain Light Rain
4:52 AM 39.2 °F 32.5 °F 37.4 °F 93% 29.66 in 4.0 mi WNW 10.4 mph - 0.11 in Rain Rain
4:54 AM 39.9 °F 32.1 °F 37.9 °F 93% 29.66 in 4.0 mi WNW 13.8 mph - 0.12 in Rain Light Rain
5:04 AM 39.0 °F 30.3 °F 37.0 °F 93% 29.65 in 6.0 mi NW 16.1 mph - 0.01 in Rain Rain
5:54 AM 37.9 °F 29.6 °F 36.0 °F 93% 29.64 in 10.0 mi NW 13.8 mph - 0.07 in Rain Light Rain
6:16 AM 37.9 °F 29.6 °F 35.1 °F 89% 29.65 in 10.0 mi NW 13.8 mph - 0.00 in   Overcast
6:54 AM 37.0 °F 29.8 °F 35.1 °F 93% 29.65 in 4.0 mi NNW 10.4 mph - 0.06 in Rain Rain
7:06 AM 37.0 °F 29.3 °F 35.1 °F 93% 29.65 in 10.0 mi NNW 11.5 mph - 0.00 in Rain Light Rain
7:54 AM 37.9 °F 32.1 °F 35.1 °F 89% 29.66 in 10.0 mi NNW 8.1 mph - 0.01 in Rain Light Rain
8:16 AM 37.9 °F 31.5 °F 35.1 °F 89% 29.66 in 10.0 mi NNW 9.2 mph - 0.00 in   Overcast
8:54 AM 37.9 °F 31.5 °F 36.0 °F 93% 29.66 in 10.0 mi NNW 9.2 mph - 0.00 in Rain Light Rain
9:06 AM 37.9 °F 30.5 °F 35.1 °F 89% 29.66 in 10.0 mi NNW 11.5 mph - 0.00 in   Overcast
9:14 AM 37.9 °F 29.6 °F 35.1 °F 89% 29.66 in 10.0 mi NNW 13.8 mph - 0.00 in   Overcast
9:54 AM 37.9 °F 30.0 °F 35.1 °F 89% 29.66 in 10.0 mi NNW 12.7 mph - 0.00 in Rain Light Rain
10:23 AM 37.9 °F 30.5 °F 35.1 °F 89% 29.67 in 10.0 mi NW 11.5 mph - 0.00 in Rain Light Rain
10:54 AM 37.9 °F 29.2 °F 36.0 °F 93% 29.67 in 6.0 mi NNW 15.0 mph - 0.02 in Rain Rain
11:54 AM 39.0 °F 31.4 °F 37.0 °F 93% 29.65 in 10.0 mi NNW 12.7 mph - 0.05 in Rain Light Rain
12:10 PM 39.0 °F 31.4 °F 37.0 °F 93% 29.64 in 10.0 mi NNW 12.7 mph - 0.01 in Rain Light Rain
12:27 PM 39.9 °F 32.9 °F 37.0 °F 89% 29.64 in 10.0 mi NNW 11.5 mph - 0.02 in Rain Light Rain
12:54 PM 39.9 °F 31.4 °F 37.0 °F 89% 29.64 in 10.0 mi NNW 16.1 mph - 0.03 in Rain Light Rain
1:37 PM 39.9 °F 30.0 °F 37.0 °F 89% 29.63 in 10.0 mi NW 21.9 mph - 0.01 in Rain Light Rain
1:54 PM 39.9 °F 29.7 °F 37.0 °F 89% 29.62 in 10.0 mi NNW 23.0 mph - 0.01 in Rain Light Rain
2:54 PM 39.0 °F 27.4 °F 36.0 °F 89% 29.63 in 10.0 mi NW 28.8 mph 35.7 mph 0.00 in   Overcast
3:54 PM 37.9 °F 26.6 °F 35.1 °F 89% 29.70 in 10.0 mi NNW 25.3 mph 31.1 mph N/A   Overcast
4:44 PM 37.0 °F 25.4 °F 34.0 °F 89% 29.74 in 10.0 mi NNW 25.3 mph 32.2 mph N/A   Overcast
4:54 PM 37.0 °F 25.6 °F 33.1 °F 86% 29.75 in 10.0 mi NNW 24.2 mph 36.8 mph N/A   Overcast
5:54 PM 35.1 °F 23.3 °F 30.9 °F 85% 29.81 in 10.0 mi NNW 23.0 mph 34.5 mph 0.00 in   Overcast
6:54 PM 32.0 °F 17.4 °F 28.0 °F 85% 29.86 in 10.0 mi NNW 31.1 mph 39.1 mph N/A   Overcast
7:54 PM 30.9 °F 15.9 °F 26.1 °F 82% 29.90 in 10.0 mi NNW 31.1 mph 40.3 mph N/A   Overcast
8:02 PM 30.9 °F 16.7 °F 26.1 °F 82% 29.89 in 10.0 mi NNW 27.6 mph 33.4 mph N/A   Overcast
8:54 PM 30.0 °F 15.7 °F 25.0 °F 82% 29.94 in 10.0 mi NNW 26.5 mph 36.8 mph N/A   Overcast
9:54 PM 28.9 °F 13.5 °F 23.0 °F 78% 29.97 in 10.0 mi NNW 29.9 mph 41.4 mph N/A   Overcast
10:54 PM 28.0 °F 12.5 °F 21.9 °F 78% 30.02 in 10.0 mi NNW 28.8 mph 36.8 mph N/A   Overcast
11:54 PM 27.0 °F 11.3 °F 21.0 °F 78% 30.04 in 10.0 mi NNW 27.6 mph 39.1 mph N/A   Overcast